When you browse on this site, cookies collect data to enhance your experience and personalize the content and advertising you see.
Visit our Privacy Policy to learn more. By continuing to use the site, you agree to this use of cookies and data.
  • In Czech Republic
  • List of Countries
  • For 7 days
  • Water Temperature
  • Weather Map
  • Weather Widgets
  • user-avatar
    Login

    Hourly Weather Quito

    Today, 30 May, Saturday

    Time Temperature Precipitation Wind Pressure Humidity
    00:00 +13°C° 0 mm 1 mps 622 mmHg 59%
    01:00 +13°C° 0 mm 1 mps 622 mmHg 63%
    02:00 +12°C° 0 mm 1 mps 622 mmHg 64%
    03:00 +12°C° 0 mm 1 mps 622 mmHg 64%
    04:00 +11°C° 0 mm 1 mps 621 mmHg 64%
    05:00 +12°C° 0 mm 1 mps 622 mmHg 62%
    06:00 +12°C° 0 mm 1 mps 623 mmHg 60%
    07:00 +13°C° 0 mm 1 mps 624 mmHg 58%
    08:00 +16°C° 0 mm 2 mps 624 mmHg 50%
    09:00 +19°C° 0 mm 2 mps 625 mmHg 42%
    10:00 +21°C° 0 mm 3 mps 626 mmHg 33%
    11:00 +24°C° 0 mm 3 mps 626 mmHg 31%
    12:00 +25°C° 0 mm 3 mps 625 mmHg 28%
    13:00 +26°C° 0 mm 3 mps 625 mmHg 24%
    14:00 +26°C° 0 mm 2 mps 625 mmHg 25%
    15:00 +25°C° 0 mm 2 mps 624 mmHg 27%
    16:00 +25°C° 0 mm 2 mps 624 mmHg 28%
    17:00 +22°C° 0 mm 1 mps 623 mmHg 32%
    18:00 +20°C° 0 mm 1 mps 623 mmHg 37%
    19:00 +16°C° 0 mm 1 mps 623 mmHg 42%
    20:00 +15°C° 0 mm 1 mps 623 mmHg 43%
    21:00 +15°C° 0 mm 1 mps 623 mmHg 45%
    22:00 +14°C° 0 mm 1 mps 623 mmHg 46%
    23:00 +14°C° 0 mm 1 mps 623 mmHg 47%

    Tomorrow, 31 May, Sunday

    Time Temperature Precipitation Wind Pressure Humidity
    00:00 +13°C° 0 mm 1 mps 623 mmHg 48%
    01:00 +13°C° 0 mm 1 mps 623 mmHg 49%
    02:00 +13°C° 0 mm 1 mps 623 mmHg 53%
    03:00 +12°C° 0 mm 1 mps 622 mmHg 57%
    04:00 +12°C° 0 mm 1 mps 622 mmHg 61%
    05:00 +12°C° 0 mm 1 mps 623 mmHg 62%
    06:00 +13°C° 0 mm 1 mps 623 mmHg 64%
    07:00 +13°C° 0 mm 1 mps 624 mmHg 65%
    08:00 +16°C° 0 mm 2 mps 625 mmHg 56%
    09:00 +20°C° 0 mm 3 mps 626 mmHg 47%
    10:00 +23°C° 0 mm 4 mps 626 mmHg 38%
    11:00 +25°C° 0 mm 3 mps 626 mmHg 36%
    12:00 +26°C° 0 mm 3 mps 626 mmHg 33%
    13:00 +27°C° 0 mm 3 mps 626 mmHg 31%
    14:00 +27°C° 0 mm 3 mps 626 mmHg 32%
    15:00 +26°C° 0 mm 3 mps 625 mmHg 32%
    16:00 +26°C° 0 mm 2 mps 625 mmHg 32%
    17:00 +23°C° 0 mm 2 mps 624 mmHg 38%
    18:00 +21°C° 0 mm 1 mps 624 mmHg 43%
    19:00 +18°C° 0 mm 1 mps 624 mmHg 48%
    20:00 +18°C° 0 mm 1 mps 624 mmHg 50%
    21:00 +16°C° 0 mm 1 mps 624 mmHg 51%
    22:00 +15°C° 0 mm 1 mps 624 mmHg 52%
    23:00 +15°C° 0 mm 1 mps 624 mmHg 55%

    Day after tomorrow, 1 June, Monday

    Time Temperature Precipitation Wind Pressure Humidity
    00:00 +14°C° 0 mm 1 mps 624 mmHg 58%
    01:00 +13°C° 0 mm 1 mps 624 mmHg 62%
    02:00 +13°C° 0 mm 1 mps 623 mmHg 64%
    03:00 +12°C° 0 mm 1 mps 623 mmHg 66%
    04:00 +12°C° 0 mm 1 mps 622 mmHg 68%
    05:00 +13°C° 0 mm 1 mps 623 mmHg 67%
    06:00 +13°C° 0 mm 1 mps 624 mmHg 66%
    07:00 +14°C° 0 mm 1 mps 624 mmHg 65%
    08:00 +17°C° 0 mm 2 mps 625 mmHg 56%
    09:00 +20°C° 0 mm 3 mps 626 mmHg 48%
    10:00 +22°C° 0 mm 4 mps 626 mmHg 39%
    11:00 +23°C° 0 mm 4 mps 626 mmHg 36%
    12:00 +26°C° 0 mm 3 mps 626 mmHg 33%
    13:00 +27°C° 0 mm 3 mps 626 mmHg 30%
    14:00 +26°C° 0 mm 3 mps 625 mmHg 30%
    15:00 +26°C° 0 mm 2 mps 625 mmHg 30%
    16:00 +26°C° 0 mm 2 mps 624 mmHg 30%
    17:00 +23°C° 0 mm 2 mps 624 mmHg 36%
    18:00 +20°C° 0 mm 1 mps 624 mmHg 43%
    19:00 +18°C° 0 mm 1 mps 623 mmHg 50%
    20:00 +16°C° 0 mm 1 mps 623 mmHg 51%
    21:00 +15°C° 0 mm 1 mps 623 mmHg 52%
    22:00 +15°C° 0 mm 1 mps 624 mmHg 54%
    23:00 +15°C° 0 mm 1 mps 623 mmHg 56%

    2 June, Tuesday

    Time Temperature Precipitation Wind Pressure Humidity
    00:00 +14°C° 0 mm 1 mps 623 mmHg 58%
    01:00 +14°C° 0 mm 1 mps 623 mmHg 59%
    02:00 +14°C° 0 mm 1 mps 623 mmHg 63%
    03:00 +13°C° 0 mm 1 mps 623 mmHg 67%
    04:00 +12°C° 0 mm 1 mps 622 mmHg 71%
    05:00 +13°C° 0 mm 1 mps 623 mmHg 71%
    06:00 +13°C° 0 mm 1 mps 623 mmHg 70%
    07:00 +14°C° 0 mm 1 mps 624 mmHg 69%
    08:00 +17°C° 0 mm 2 mps 625 mmHg 58%
    09:00 +20°C° 0 mm 2 mps 626 mmHg 46%
    10:00 +24°C° 0 mm 3 mps 627 mmHg 35%
    11:00 +25°C° 0 mm 3 mps 626 mmHg 32%
    12:00 +26°C° 0 mm 3 mps 626 mmHg 29%
    13:00 +27°C° 0 mm 2 mps 625 mmHg 27%
    14:00 +27°C° 0 mm 2 mps 625 mmHg 27%
    15:00 +26°C° 0 mm 2 mps 624 mmHg 27%
    16:00 +26°C° 0 mm 2 mps 624 mmHg 28%
    17:00 +23°C° 0 mm 1 mps 623 mmHg 33%
    18:00 +21°C° 0 mm 1 mps 623 mmHg 38%
    19:00 +18°C° 0 mm 1 mps 623 mmHg 43%
    20:00 +18°C° 0 mm 1 mps 623 mmHg 43%
    21:00 +16°C° 0 mm 1 mps 623 mmHg 43%
    22:00 +15°C° 0 mm 0 mps 623 mmHg 43%
    23:00 +15°C° 0 mm 1 mps 623 mmHg 46%

    3 June, Wednesday

    Time Temperature Precipitation Wind Pressure Humidity
    00:00 +15°C° 0 mm 1 mps 623 mmHg 48%
    01:00 +15°C° 0 mm 1 mps 622 mmHg 50%
    02:00 +14°C° 0 mm 1 mps 622 mmHg 52%
    03:00 +14°C° 0 mm 1 mps 622 mmHg 54%
    04:00 +14°C° 0 mm 1 mps 622 mmHg 56%
    05:00 +14°C° 0 mm 1 mps 622 mmHg 57%
    06:00 +14°C° 0 mm 1 mps 623 mmHg 58%
    07:00 +14°C° 0 mm 1 mps 623 mmHg 59%
    08:00 +17°C° 0 mm 2 mps 624 mmHg 51%
    09:00 +20°C° 0 mm 3 mps 625 mmHg 42%
    10:00 +24°C° 0 mm 3 mps 626 mmHg 33%
    11:00 +25°C° 0 mm 3 mps 625 mmHg 31%
    12:00 +27°C° 0 mm 2 mps 625 mmHg 29%
    13:00 +28°C° 0 mm 2 mps 625 mmHg 26%
    14:00 +27°C° 0 mm 2 mps 624 mmHg 28%
    15:00 +26°C° 0 mm 2 mps 624 mmHg 29%
    16:00 +25°C° 0 mm 2 mps 623 mmHg 31%
    17:00 +23°C° 0 mm 2 mps 622 mmHg 36%
    18:00 +20°C° 0 mm 1 mps 622 mmHg 40%
    19:00 +18°C° 0 mm 1 mps 622 mmHg 45%
    20:00 +18°C° 0 mm 1 mps 622 mmHg 45%
    21:00 +16°C° 0 mm 0 mps 622 mmHg 45%
    22:00 +15°C° 0 mm 0 mps 623 mmHg 44%
    23:00 +16°C° 0 mm 1 mps 623 mmHg 44%

    4 June, Thursday

    Time Temperature Precipitation Wind Pressure Humidity
    00:00 +18°C° 0 mm 1 mps 623 mmHg 43%
    01:00 +18°C° 0 mm 1 mps 623 mmHg 43%
    02:00 +15°C° 0 mm 1 mps 622 mmHg 46%
    03:00 +14°C° 0 mm 1 mps 622 mmHg 49%
    04:00 +13°C° 0 mm 1 mps 621 mmHg 53%
    05:00 +14°C° 0 mm 1 mps 622 mmHg 52%
    06:00 +14°C° 0 mm 1 mps 623 mmHg 52%
    07:00 +14°C° 0 mm 1 mps 623 mmHg 51%
    08:00 +17°C° 0 mm 2 mps 624 mmHg 44%
    09:00 +20°C° 0 mm 2 mps 625 mmHg 37%
    10:00 +24°C° 0 mm 3 mps 626 mmHg 29%
    11:00 +26°C° 0 mm 3 mps 626 mmHg 28%
    12:00 +27°C° 0 mm 2 mps 626 mmHg 27%
    13:00 +28°C° 0 mm 2 mps 626 mmHg 25%
    14:00 +28°C° 0 mm 2 mps 625 mmHg 26%
    15:00 +27°C° 0 mm 2 mps 625 mmHg 26%
    16:00 +27°C° 0 mm 2 mps 624 mmHg 27%
    17:00 +24°C° 0 mm 1 mps 623 mmHg 34%
    18:00 +21°C° 0 mm 1 mps 623 mmHg 40%
    19:00 +16°C° 0 mm 0 mps 622 mmHg 47%
    20:00 +16°C° 0 mm 0 mps 623 mmHg 47%
    21:00 +15°C° 0 mm 0 mps 623 mmHg 47%
    22:00 +16°C° 0 mm 1 mps 624 mmHg 47%
    23:00 +16°C° 0 mm 1 mps 623 mmHg 48%
    Show more